AirNav   Everest Fuels
 
 504 users online  

68PA Don's Place Airpark
Hamburg, Pennsylvania, USA

GOING TO HAMBURG?


FAA INFORMATION EFFECTIVE 25 MARCH 2021

Location

FAA Identifier: 68PA
Lat/Long: 40-31-05.3370N 075-54-58.7420W
40-31.088950N 075-54.979033W
40.5181492,-75.9163172
(estimated)
Elevation: 510 ft. / 155 m (estimated)
Variation: 11W (1985)
From city: 4 miles SE of HAMBURG, PA
Time zone: UTC -4 (UTC -5 during Standard Time)
Zip code: 19526

Airport Operations

Airport use: Private use. Permission required prior to landing
Activation date: 06/1973
Control tower: no
ARTCC: NEW YORK CENTER
FSS: WILLIAMSPORT FLIGHT SERVICE STATION
Attendance: UNATNDD
Wind indicator: yes
Segmented circle: no

Airport Communications

WX ASOS at RDG (9 nm S): 127.1 (610-372-9863)
WX AWOS-3PT at 22N (19 nm N): 119.350 (570-386-3423)
WX AWOS-3 at XLL (20 nm E): 127.875 (610-231-3111)

Nearby radio navigation aids

VOR radial/distance  VOR name  Freq  Var
ETXr259/11.2EAST TEXAS VOR/DME110.2009W
PTWr326/24.1POTTSTOWN VORTAC116.5009W
FJCr249/24.5ALLENTOWN VORTAC117.5010W
LRPr045/29.4LANCASTER VOR/DME117.3009W
RAVr105/31.2RAVINE VORTAC114.6011W
MXEr352/37.7MODENA VORTAC113.2009W

 
NDB name  Hdg/Dist  Freq  Var  ID
BELLGROVE090/29.532810WBZJ -... --.. .---
AMBLER321/37.227512WING .. -. --.

Airport Services

Runway Information

Runway 9/27

Dimensions: 1800 x 100 ft. / 549 x 30 m
Surface: turf, in good condition
RUNWAY 9  RUNWAY 27
Traffic pattern: leftright

Airport Ownership and Management from official FAA records

Ownership: Privately-owned
Owner: MARY G. GRIM
375 FARVIEW ROAD
HAMBURG, PA 19526
Phone 610-562-8426
Manager: JEFFREY GRIM
80 GRIM LANE
HAMBURG, PA 19526
Phone 610-944-8426

Airport Operational Statistics

Aircraft based on the field: 1
Ultralights: 1
    

Additional Remarks

FOR CD CTC READING ATCT AT 610-478-9562; WHEN CLSD CTC HARRISBURG APCH AT 800-932-0712.

Instrument Procedures

There are no published instrument procedures at 68PA.

Some nearby airports with instrument procedures:

KRDG - Reading Regional Airport/Carl A Spaatz Field (9 nm S)
22N - Jake Arner Memorial Airport (19 nm N)
N47 - Pottstown Municipal Airport (19 nm SE)
KXLL - Allentown Queen City Municipal Airport (20 nm E)
9D4 - Deck Airport (21 nm SW)
 
Loc | Ops | Rwys | IFR | FBO | Links
Com | Nav | Svcs | Stats | Notes
Area around 68PA (Don's Place Airpark)
 
Road maps at: MapQuest Bing Google
 
Aerial photo
No photo
 
Sectional chart

 
Airport distance calculator
Flying to Don's Place Airpark? Find the distance to fly.

From to 68PA

Sunrise and sunset
Times for 19-Apr-2021
 Local
(UTC-4)
 Zulu
(UTC)
Morning civil twilight05:5209:52
Sunrise06:2010:20
Sunset19:4623:46
Evening civil twilight20:1400:14

Current date and time
Zulu (UTC)  19-Apr-2021 10:26:01
Local (UTC-4)  19-Apr-2021 06:26:01
 
METAR
KRDG 
9nm S 
190954Z 00000KT 10SM CLR 05/03 A2984 RMK AO2 SLP111 T00500033 $
K22N 
19nm N 
190955Z AUTO 00000KT 10SM CLR 00/00 A2988 RMK AO2
KXLL 
20nm E 
190955Z AUTO 22003KT 10SM CLR 04/02 A2987 RMK AO2
TAF
KRDG 
9nm S 
190520Z 1906/2006 VRB02KT P6SM SCT080 BKN100 FM191500 26006KT P6SM SCT060 BKN080 FM191900 26006KT P6SM VCSH SCT050 BKN070 FM200000 VRB03KT P6SM FEW100 FEW250
NOTAMs
Click for the latest NOTAMs
NOTAMs are issued by the DoD/FAA and will open in a separate window not controlled by AirNav.

 

 
 

Would you like to see your business listed on this page?

 If your business provides an interesting product or service to pilots, flight crews, aircraft, or users of the Don's Place Airpark, you should consider listing it here.  To start the listing process, click on the button below
 
Add a business
 

Other Pages about Don's Place Airpark

Update a link
 
Copyright © AirNav, LLC. All rights reserved. Privacy Policy  Contact